[[{"header":{"parameterUnit":"m.s-1","parameterCategory":1,"la1":30.2991,"la2":30.254,"lo1":-89.0895,"lo2":-89.0444,"dy":0.0017,"dx":0.0017,"nx":28,"ny":28,"refTime":"2024-11-24T03:00:00:Z","depth":0,"parameterNumber":2,"parameterNumberName":"U-component_of_WINDS"},"data":[0,0,0,0,0,0,0,0,0,0,0,0,0,0,0,0,0,0,0,0,0,0,0,0,0,0,0,0,0,0,0,0,0,0,0,0,0,0,0,0,0,0,0,0,0,0,0,0,0,0,0,0,0,0,0,0,0,0,-0.2498,-0.2496,0,-0.2332,-0.233,-0.2328,-0.2283,-0.2284,-0.2284,-0.2285,-0.2112,-0.2106,-0.2101,0,0,0,0,0,0,0,0,0,0,0,0,0,-0.2769,-0.2765,-0.2498,-0.2496,-0.2494,-0.2333,-0.233,-0.2328,-0.2282,-0.2284,-0.2285,-0.2286,-0.2113,-0.2107,-0.21,0,0,0,0,0,0,0,0,0,0,0,0,0,-0.2632,-0.2763,-0.2498,-0.2452,-0.2446,-0.2333,-0.233,-0.2327,-0.2282,-0.2284,-0.2285,-0.2286,-0.2116,-0.2107,-0.2099,-0.202,0,0,-0.2074,-0.207,0,0,0,0,0,0,0,0,-0.264,-0.2622,-0.2461,-0.2455,-0.2448,-0.233,-0.2362,-0.2224,-0.2282,-0.2344,-0.2285,-0.2287,-0.2183,-0.2169,-0.2135,-0.2012,-0.2004,-0.2073,-0.2068,-0.2065,-0.2062,0,0,0,0,0,0,0,-0.265,-0.2629,-0.2432,-0.2458,-0.245,-0.2437,-0.2419,-0.2336,-0.2257,-0.2339,-0.2335,-0.2316,-0.2179,-0.2143,-0.213,-0.2001,-0.2074,-0.2066,-0.2061,-0.2058,-0.1802,-0.18,0,0,0,0,0,0,-0.2668,-0.2637,-0.2437,-0.2427,-0.255,-0.2431,-0.2411,-0.2366,-0.2258,-0.2243,-0.2315,-0.2315,-0.2156,-0.214,-0.2124,-0.2022,-0.2065,-0.2057,-0.2052,-0.1804,-0.1802,-0.18,0,0,0,0,0,0,-0.2674,-0.265,-0.2444,-0.2531,-0.2504,-0.2425,-0.2375,-0.2362,-0.2325,-0.224,-0.2226,-0.2293,-0.2157,-0.2136,-0.2046,-0.2016,-0.2053,-0.2046,-0.1806,-0.1803,-0.1801,-0.1819,0,0,0,0,0,0,-0.2682,-0.2653,-0.2623,-0.2531,-0.25,-0.237,-0.2373,-0.2358,-0.2312,-0.2309,-0.2215,-0.2201,-0.2156,-0.2058,-0.2038,-0.2005,-0.2039,-0.1808,-0.1805,-0.1802,-0.1821,-0.1817,-0.1814,0,0,0,0,0,-0.2692,-0.2634,-0.2622,-0.2598,-0.2461,-0.2369,-0.2351,-0.2302,-0.231,-0.2278,-0.2223,-0.2204,-0.2022,-0.205,-0.2026,-0.199,-0.181,-0.1806,-0.1802,-0.1822,-0.1818,-0.1814,0,0,0,0,0,0,-0.2724,-0.2622,-0.2607,-0.2518,-0.2453,-0.2361,-0.232,-0.2299,-0.2229,-0.223,-0.217,-0.2149,-0.2063,-0.2017,-0.205,-0.1906,-0.1916,-0.1907,-0.1939,-0.1934,-0.1931,-0.1944,-0.2032,0,0,0,0,0,-0.2721,-0.2656,-0.257,-0.25,-0.2468,-0.24,-0.2358,-0.2326,-0.2255,-0.2227,-0.2165,-0.2096,-0.2023,-0.1976,-0.1905,-0.1814,-0.1792,-0.1777,-0.1774,-0.1772,-0.1765,-0.1711,-0.1704,-0.1786,-0.1786,-0.1786,0,0,-0.2714,-0.265,-0.2613,-0.2505,-0.245,-0.2383,-0.2377,-0.2306,-0.2255,-0.2215,-0.2127,-0.2079,-0.1998,-0.1907,-0.1864,-0.1866,-0.1737,-0.1767,-0.1766,-0.1759,-0.1706,-0.1699,-0.1692,-0.1783,-0.1784,-0.1784,0,0,-0.2667,-0.2612,-0.2548,-0.2493,-0.2411,-0.2366,-0.235,-0.2261,-0.2229,-0.2139,-0.2108,-0.2045,-0.1921,-0.1864,-0.1819,-0.1748,-0.1727,-0.1726,-0.1709,-0.1658,-0.1651,-0.1645,-0.1618,-0.161,-0.1719,-0.1719,-0.1719,0,-0.2668,-0.2567,-0.2517,-0.2447,-0.24,-0.2362,-0.2294,-0.2243,-0.2142,-0.2109,-0.2113,-0.1956,-0.1899,-0.1793,-0.1776,-0.1741,-0.172,-0.1736,-0.1656,-0.165,-0.1643,-0.1617,-0.1607,-0.1719,-0.1719,-0.1719,-0.1719,0,-0.2571,-0.2501,-0.2458,-0.2362,-0.231,-0.2242,-0.218,-0.2132,-0.2104,-0.2058,-0.1966,-0.1896,-0.1809,-0.1781,-0.1753,-0.1671,-0.1675,-0.1669,-0.1677,-0.1637,-0.1611,-0.1601,-0.172,-0.172,-0.172,-0.172,0,0,-0.254,-0.2417,-0.2402,-0.2357,-0.2262,-0.2206,-0.2135,-0.2051,-0.2011,-0.1942,-0.188,-0.1775,-0.1768,-0.1717,-0.1682,-0.1637,-0.1583,-0.1636,-0.1633,-0.1627,-0.1486,-0.1491,-0.1481,-0.1569,-0.1567,-0.1565,-0.1493,0,-0.248,-0.2354,-0.2307,-0.2203,-0.2136,-0.2098,-0.2036,-0.1971,-0.1925,-0.1861,-0.1809,-0.1736,-0.1734,-0.1702,-0.1656,-0.16,-0.1554,-0.1604,-0.1509,-0.1506,-0.153,-0.1467,-0.1473,-0.1408,-0.1483,-0.1481,-0.148,0,-0.2394,-0.2324,-0.2214,-0.2127,-0.2097,-0.2042,-0.196,-0.19,-0.1824,-0.1793,-0.1736,-0.1703,-0.1625,-0.1638,-0.1529,-0.1565,-0.1522,-0.1489,-0.1485,-0.1473,-0.149,-0.1454,-0.1386,-0.1376,-0.1464,-0.1465,-0.1466,0,-0.2381,-0.226,-0.2178,-0.2141,-0.2037,-0.1999,-0.1954,-0.1879,-0.1831,-0.1758,-0.1726,-0.1645,-0.1601,-0.1538,-0.1483,-0.1499,-0.1379,-0.1388,-0.135,-0.1351,-0.1326,-0.1328,-0.125,-0.13,-0.1301,-0.1301,-0.1301,0,-0.2319,-0.2253,-0.2171,-0.212,-0.2044,-0.1989,-0.1914,-0.1866,-0.18,-0.1738,-0.1699,-0.1642,-0.1573,-0.1506,-0.1463,-0.1378,-0.1358,-0.133,-0.1319,-0.1333,-0.1337,-0.1305,-0.1307,-0.1298,-0.1299,-0.1299,-0.13,0,-0.2293,-0.2235,-0.2143,-0.2052,-0.2027,-0.1975,-0.1896,-0.1844,-0.1797,-0.1719,-0.1697,-0.1622,-0.154,-0.148,-0.1374,-0.1345,-0.1254,-0.1243,-0.1281,-0.1275,-0.124,-0.1244,-0.1138,-0.112,-0.1183,-0.1183,-0.1182,0,-0.2257,-0.2205,-0.2108,-0.2065,-0.202,-0.195,-0.19,-0.1843,-0.1793,-0.1701,-0.166,-0.1576,-0.1506,-0.1378,-0.1313,-0.1231,-0.1217,-0.1186,-0.1205,-0.122,-0.1215,-0.1219,-0.1213,-0.1183,-0.1183,-0.1182,-0.1182,0,-0.2199,-0.2172,-0.2104,-0.2024,-0.1966,-0.1901,-0.1834,-0.18,-0.173,-0.1675,-0.1592,-0.1538,-0.143,-0.1347,-0.1259,-0.121,-0.1183,-0.1177,-0.1163,-0.1177,-0.12,-0.1186,-0.1273,-0.1179,-0.118,-0.118,-0.118,-0.118,-0.2165,-0.2117,-0.2041,-0.1965,-0.1909,-0.1847,-0.1794,-0.174,-0.167,-0.1579,-0.1548,-0.1462,-0.1385,-0.1264,-0.1214,-0.1144,-0.1144,-0.1125,-0.112,-0.1116,-0.1117,-0.1212,-0.1128,-0.1128,-0.1128,-0.1128,-0.1128,0,-0.2105,-0.2054,-0.1984,-0.1893,-0.1832,-0.1814,-0.1739,-0.1689,-0.1614,-0.1545,-0.1477,-0.138,-0.1299,-0.1227,-0.1141,-0.1099,-0.1085,-0.1079,-0.1081,-0.107,-0.1122,-0.1142,-0.1092,-0.1092,-0.1092,-0.1092,-0.1092,-0.1092,-0.2066,-0.1983,-0.1947,-0.1835,-0.1784,-0.17,-0.1658,-0.16,-0.1545,-0.1439,-0.1372,-0.1326,-0.1254,-0.1163,-0.1087,-0.1068,-0.1038,-0.1034,-0.1012,-0.1062,-0.1066,-0.1071,-0.1089,-0.1028,-0.1028,-0.0965,-0.0964,-0.0964]},{"header":{"parameterUnit":"m.s-1","parameterCategory":1,"la1":30.2991,"la2":30.254,"lo1":-89.0895,"lo2":-89.0444,"dy":0.0017,"dx":0.0017,"nx":28,"ny":28,"refTime":"2024-11-24T03:00:00:Z","depth":0,"parameterNumber":3,"parameterNumberName":"V-component_of_WINDS"},"data":[0,0,0,0,0,0,0,0,0,0,0,0,0,0,0,0,0,0,0,0,0,0,0,0,0,0,0,0,0,0,0,0,0,0,0,0,0,0,0,0,0,0,0,0,0,0,0,0,0,0,0,0,0,0,0,0,0,0,2.142,2.1422,0,2.1552,2.1553,2.1555,2.1505,2.1502,2.1498,2.1496,2.1636,2.1642,2.1649,0,0,0,0,0,0,0,0,0,0,0,0,0,2.1131,2.1136,2.142,2.1422,2.1423,2.1552,2.1554,2.1555,2.1505,2.1501,2.1498,2.1494,2.1634,2.1642,2.1649,0,0,0,0,0,0,0,0,0,0,0,0,0,2.1259,2.1138,2.142,2.1414,2.1414,2.1551,2.1554,2.1556,2.1506,2.1501,2.1497,2.1492,2.1631,2.1641,2.1651,2.1803,0,0,2.1681,2.1685,0,0,0,0,0,0,0,0,2.1252,2.127,2.1413,2.1414,2.1415,2.1507,2.1503,2.1639,2.1507,2.1471,2.1496,2.149,2.1597,2.161,2.1644,2.181,2.1816,2.1682,2.1688,2.1692,2.1695,0,0,0,0,0,0,0,2.1243,2.1264,2.1472,2.1415,2.1417,2.1406,2.1419,2.1528,2.1559,2.1474,2.1471,2.1487,2.1597,2.1635,2.1647,2.1818,2.1681,2.169,2.1696,2.17,2.2117,2.2121,0,0,0,0,0,0,2.1233,2.1257,2.1468,2.1476,2.132,2.1415,2.143,2.1482,2.1557,2.1564,2.1491,2.1484,2.162,2.1636,2.1652,2.1837,2.1692,2.1701,2.1707,2.2111,2.2118,2.2123,0,0,0,0,0,0,2.1227,2.1252,2.1463,2.1366,2.1392,2.1425,2.1484,2.1487,2.1525,2.1569,2.1575,2.1524,2.1617,2.1638,2.1766,2.1841,2.1705,2.1714,2.2105,2.2113,2.212,2.2208,0,0,0,0,0,0,2.1219,2.125,2.1307,2.1367,2.1397,2.1573,2.1489,2.1493,2.1542,2.1534,2.1602,2.1609,2.1615,2.1752,2.1776,2.1853,2.1722,2.2099,2.2109,2.2118,2.2199,2.2218,2.2234,0,0,0,0,0,2.1209,2.1328,2.131,2.1336,2.1469,2.1578,2.1595,2.1599,2.1548,2.1607,2.1635,2.1607,2.1829,2.1765,2.1792,2.1873,2.2094,2.2106,2.2117,2.2191,2.2214,2.2234,0,0,0,0,0,0,2.1278,2.1335,2.1317,2.1458,2.1513,2.1569,2.1643,2.1623,2.1695,2.1685,2.1688,2.1704,2.1836,2.1867,2.1795,2.2025,2.1954,2.1972,2.2001,2.2023,2.2041,2.2032,2.173,0,0,0,0,0,2.1309,2.1391,2.1437,2.1558,2.1586,2.161,2.1657,2.1655,2.1713,2.1737,2.1774,2.1833,2.1916,2.1971,2.2049,2.2202,2.2217,2.2271,2.2288,2.2303,2.2319,2.2404,2.2429,2.2161,2.2161,2.2161,0,0,2.1375,2.1417,2.1469,2.1573,2.1615,2.1702,2.163,2.1724,2.179,2.1752,2.1875,2.1904,2.197,2.2111,2.2175,2.2141,2.2396,2.2318,2.2329,2.2337,2.2418,2.2444,2.2466,2.2169,2.2168,2.2166,0,0,2.1541,2.158,2.1685,2.1728,2.1793,2.1808,2.1833,2.1892,2.191,2.2032,2.2006,2.2084,2.2227,2.2275,2.2318,2.2502,2.248,2.2528,2.2622,2.2705,2.2726,2.2744,2.2813,2.2837,2.2543,2.2543,2.2543,0,2.1617,2.1744,2.1742,2.1839,2.1887,2.1854,2.1962,2.2005,2.2093,2.2127,2.2087,2.2265,2.2307,2.246,2.2505,2.254,2.2571,2.2521,2.2722,2.2741,2.2759,2.2824,2.2849,2.2549,2.2548,2.2548,2.2547,0,2.1835,2.1924,2.2001,2.2085,2.2141,2.2243,2.2259,2.2316,2.2309,2.2329,2.2456,2.2504,2.2593,2.2628,2.2623,2.2782,2.2758,2.272,2.2649,2.279,2.2851,2.2876,2.2557,2.2555,2.2553,2.2552,0,0,2.205,2.213,2.2159,2.2197,2.2265,2.2336,2.2437,2.2522,2.2572,2.2633,2.272,2.2841,2.2806,2.2855,2.2855,2.2927,2.3072,2.288,2.2882,2.2916,2.3253,2.3283,2.3311,2.3056,2.3061,2.3065,2.3248,0,2.2223,2.2399,2.24,2.2563,2.2647,2.2617,2.2705,2.2758,2.2779,2.2854,2.2878,2.2965,2.2911,2.2941,2.301,2.304,2.314,2.3026,2.314,2.3144,2.3127,2.3343,2.3375,2.3546,2.3272,2.3276,2.3278,0,2.2449,2.2516,2.2687,2.2743,2.2779,2.2858,2.2937,2.3008,2.3068,2.3078,2.3133,2.3122,2.3227,2.3151,2.3297,2.322,2.3266,2.3287,2.3294,2.3307,2.3222,2.3365,2.36,2.3627,2.3316,2.3313,2.331,0,2.2592,2.2725,2.2844,2.2878,2.2946,2.3003,2.3035,2.3089,2.3141,2.321,2.3244,2.3324,2.337,2.3433,2.3445,2.3388,2.3593,2.3517,2.3607,2.3607,2.3654,2.3651,2.3903,2.3679,2.3679,2.3678,2.3678,0,2.2787,2.2893,2.291,2.2984,2.3103,2.3103,2.3222,2.3249,2.3298,2.3379,2.3357,2.3433,2.3442,2.3522,2.3531,2.3653,2.3673,2.3686,2.3688,2.3689,2.3688,2.3722,2.3711,2.3685,2.3683,2.3682,2.3681,0,2.2968,2.2982,2.3112,2.3165,2.3181,2.3267,2.3314,2.3386,2.3404,2.3506,2.353,2.356,2.3652,2.3669,2.3778,2.3784,2.393,2.3918,2.391,2.391,2.3999,2.3992,2.4284,2.4323,2.4071,2.4074,2.4076,0,2.3092,2.3173,2.3235,2.3287,2.3321,2.3404,2.3456,2.346,2.3515,2.3589,2.3653,2.3742,2.3814,2.3963,2.3996,2.408,2.4072,2.4168,2.4085,2.4084,2.4077,2.4073,2.4082,2.4185,2.4188,2.419,2.4192,0,2.3313,2.3316,2.3391,2.3469,2.3531,2.3593,2.3651,2.3695,2.3707,2.3771,2.3864,2.392,2.403,2.4121,2.4204,2.4238,2.4219,2.4218,2.4243,2.4248,2.424,2.4248,2.3957,2.4212,2.421,2.4208,2.4207,2.4207,2.3472,2.3543,2.3598,2.3682,2.3726,2.3781,2.3852,2.3878,2.3955,2.4045,2.4042,2.4145,2.4204,2.4313,2.4353,2.4435,2.4405,2.4441,2.4451,2.4461,2.4471,2.4225,2.445,2.4449,2.4449,2.4448,2.4448,0,2.3694,2.3727,2.3804,2.3886,2.3953,2.3925,2.3989,2.4047,2.4138,2.4193,2.4264,2.4372,2.4459,2.4498,2.4584,2.4642,2.4636,2.4665,2.4663,2.4671,2.4492,2.4462,2.4669,2.4669,2.4669,2.4669,2.4669,2.4669,2.3817,2.3936,2.3946,2.4088,2.4121,2.422,2.4259,2.4311,2.4355,2.4476,2.4548,2.4572,2.4621,2.4711,2.479,2.48,2.4834,2.4868,2.4874,2.4706,2.4684,2.4662,2.4635,2.4875,2.4875,2.5047,2.5049,2.505]}]]